Preview of NWS' New Version of Forecast
This preview is not operational and should not be used for support decisions.

Regional Weather Roundup (RWR)

Issued by National Weather Service (NWS)

                            
000
ASUS43 KLSX 190057
RWRMO 

WEATHER SUMMARY FOR MISSOURI
NATIONAL WEATHER SERVICE SPRINGFIELD MO
800 PM CDT THU APR 18 2019

NOTE: "FAIR" INDICATES FEW OR NO CLOUDS BELOW 12,000 FEET WITH NO
       SIGNIFICANT WEATHER AND/OR OBSTRUCTIONS TO VISIBILITY.
       CURRENT SKY AND/OR WEATHER CONDITIONS ARE NOT AVAILABLE FOR
       CHILLICOTHE AND FARMINGTON.

MOZ001>031-035>038-043-044-053-054-190200-
...NORTHERN AND WESTERN MISSOURI...
  
CITY           SKY/WX    TMP DP  RH WIND       PRES   REMARKS
KANSAS CTY INT PTCLDY    55  38  52 N16G25    29.85S                  
LEE'S SUMMIT   MOCLDY    55  38  52 N15G24    29.85R                  
ST JOSEPH      MOCLDY    56  40  55 N20G29    29.88R                  
CHILLICOTHE      N/A     55  38  52 N8G20     29.86R                  
     
$$
MOZ066>068-077>081-088>096-101>105-190200-
...SOUTHWEST MISSOURI...
  
CITY           SKY/WX    TMP DP  RH WIND       PRES   REMARKS
SPRINGFIELD    CLOUDY    53  42  66 NW10      29.80R                  
JOPLIN         CLEAR     56  40  55 N9        29.83R                  
BRANSON        MOCLDY    50  48  93 NW5       29.80R                  
               
$$
MOZ032>034-039>042-045>050-055>058-069>072-190200-
...CENTRAL MISSOURI...  
  
CITY           SKY/WX    TMP DP  RH WIND       PRES   REMARKS
COLUMBIA       NOT AVBL                                               
JEFFERSON CITY CLOUDY    54  42  64 CALM      29.79R                  
ROLLA          CLOUDY    49  42  77 N5        29.79R                  
SEDALIA        CLOUDY    51  43  74 N12       29.83R                  
WARRENSBURG    CLOUDY    54  41  62 N6        29.84R                  
               
$$
MOZ051-052-059>065-190200-
...EAST CENTRAL MISSOURI...
  
CITY           SKY/WX    TMP DP  RH WIND       PRES   REMARKS
ST LOUIS INTL  CLOUDY    50  42  74 N5        29.75F                  
                   
$$
MOZ072>076-082>087-097>100-106>115-190200-
...SOUTH CENTRAL AND SOUTHEAST MISSOURI...
  
CITY           SKY/WX    TMP DP  RH WIND       PRES   REMARKS
CAPE GIRARDEAU CLOUDY    49  45  86 N14G25    29.71R                  
POPLAR BLUFF   LGT RAIN  49  48  97 N15G29    29.71R FOG              
WEST PLAINS    CLOUDY    47  44  90 N7        29.78R                  
                                       
$$